Location: Auckland
(36.8670°S, 174.7670°E)
Time: 19:22:59
(UTC+12:00)

A-11 Canister half - Pass Details

Date: 23 July 2019
Orbit: 1526 x 1683 km, 47.3° (Epoch: 23 August)

Event Time Altitude Azimuth Distance (km) Brightness Sun altitude
Rises 14:58:35 0° 238° (WSW) 4,819 11.7 22.8°
Reaches altitude 10° 15:01:40 10° 240° (WSW) 3,852 11.3 22.4°
Maximum altitude 15:11:28 70° 320° (NW) 1,740 10.1 21.1°
Drops below altitude 10° 15:21:29 10° 41° (NE) 3,931 11.3 19.8°
Sets 15:24:40 0° 43° (NE) 4,921 11.7 19.3°
